Location: Bushrod
(6.3500°N, 10.7833°W)
Time: 07:14:51
(UTC+00:00)

ASTEX 1 - Pass Details

Date: 17 September 2019
Orbit: 720 x 744 km, 92.7° (Epoch: 22 October)

Event Time Altitude Azimuth Distance (km) Brightness Sun altitude
Rises 19:55:12 0° 12° (NNE) 3,117 6.6 -19.0°
Reaches altitude 10° 19:57:30 10° 15° (NNE) 2,199 5.8 -19.6°
Maximum altitude 20:02:18 64° 96° (E) 799 3.3 -20.8°
Drops below altitude 10° 20:07:08 10° 177° (S) 2,212 5.8 -22.0°
Sets 20:09:27 0° 180° (S) 3,137 6.6 -22.5°
